Regional Weather Roundup
Issued by NWS

Home | Current Version | Previous Version | Graphics & Text | Print | Product List | Glossary On
Versions: 1 2 3 4 5 6 7 8 9 10 11 12 13 14 15 16 17 18 19 20 21 22 23 24 25 26 27 28 29 30 31 32 33 34 35 36 37 38 39 40 41 42 43 44 45 46 47 48 49 50
000
ASUS43 KMKX 200211
RWRWI

WISCONSIN REGIONAL WEATHER ROUNDUP
NATIONAL WEATHER SERVICE MILWAUKEE/SULLIVAN WI
900 PM CDT TUE SEP 19 2017

NOTE: "FAIR" INDICATES FEW OR NO CLOUDS BELOW 12,000 FEET WITH NO
SIGNIFICANT WEATHER AND/OR OBSTRUCTIONS TO VISIBILITY.

WIZ001-002-006>008-014>016-023>028-200300-
NORTHWEST WISCONSIN

CITY           SKY/WX    TMP DP  RH WIND       PRES   REMARKS
SUPERIOR ARPT  CLOUDY    60  59  96 NE9       29.77F
ASHLAND        PTCLDY    63  58  83 E5        29.82F
HAYWARD        CLOUDY    68  55  63 SE10      29.80F
SIREN          CLOUDY    70  60  68 SE10G16   29.74F
CUMBERLAND     CLOUDY    68  57  68 SE13      29.78F
RICE LAKE      CLOUDY    69  58  68 E9        29.81S
CHETEK         CLOUDY    69  58  69 SE13G20   29.80S
LADYSMITH      CLOUDY    66  56  70 E8        29.86R
EAU CLAIRE     CLOUDY    70  59  68 SE10      29.79S
MENOMONIE      CLOUDY    68  61  78 E7        29.79S
NEW RICHMOND   CLOUDY    70  60  72 SE12      29.74S
OSCEOLA        PTCLDY    71  62  73 SE16      29.75S
$$

WIZ003>005-009-010-017-018-200300-
NORTH CENTRAL WISCONSIN

CITY           SKY/WX    TMP DP  RH WIND       PRES   REMARKS
MANITOWISH WTR CLOUDY    63  60  87 SE6       29.90F
ARBOR VITAE    CLEAR     64  59  81 SE9       29.91S
WOODRUFF       CLEAR     64  59  81 SE9       29.91S
RHINELANDER    CLEAR     62  59  90 SE13      29.93F
EAGLE RIVER    CLEAR     62  55  78 SE8       29.94S
LAND O LAKES   CLEAR     61  57  86 SE7       29.95F
PHILLIPS       CLOUDY    64  58  81 SE8       29.88R
TOMAHAWK         N/A     62  57  84 SE5       29.91S
MEDFORD        CLEAR     63  58  82 SE9       29.88S
MERRILL          N/A     64  59  82 SE8       29.92R
$$

WIZ029-030-035-036-043>047-200300-
CENTRAL WISCONSIN

CITY           SKY/WX    TMP DP  RH WIND       PRES   REMARKS
WAUSAU         CLEAR     64  58  80 E12       29.89R
MOSINEE        CLEAR     63  57  82 E10       29.91R
MARSHFIELD     CLEAR     65  58  78 E10       29.87R
STEVENS POINT  CLEAR     63  58  83 E9        29.91S
WAUPACA        CLEAR     66  60  80 E8        29.92S
WAUTOMA        CLEAR     66  61  84 E8        29.91R
WISC RAPIDS    CLEAR     67  60  78 SE13G18   29.89S
CAMP DOUGLAS   PTCLDY    61  57  88 E9        29.85S
$$

WIZ011>013-019>022-031-037>040-048>050-200300-
NORTHEAST WISCONSIN

CITY           SKY/WX    TMP DP  RH WIND       PRES   REMARKS
ANTIGO         CLEAR     59  56  88 SE13G18   29.94F
SHAWANO        CLEAR     62  56  79 E5        29.94R
OCONTO         CLEAR     58  55  90 CALM      29.95S
STURGEON BAY   CLEAR     61  59  93 E6        29.96S
GREEN BAY      CLEAR     62  59  90 E7        29.94S
MANITOWOC      CLEAR     58  57  97 CALM      29.96R
APPLETON       PTCLDY    64  57  77 E9        29.92S
CLINTONVILLE   CLEAR     63  55  77 E7        29.93R
OSHKOSH        CLEAR     64  61  90 SE8       29.92R
$$

WIZ032>034-041-042-053>061-200300-
SOUTHWEST WISCONSIN

CITY           SKY/WX    TMP DP  RH WIND       PRES   REMARKS
LA CROSSE      CLEAR     73  63  70 SE7       29.80R
SPARTA         CLEAR     69  60  75 E5        29.84R
VIROQUA        CLEAR     68  64  85 SE8       29.84R
BOSCOBEL       CLEAR     71  62  73 CALM      29.84R
PRAIRIE DU CHI CLEAR     71  61  71 SE7       29.82S
PLATTEVILLE    CLEAR     69  66  90 SE8       29.86S
$$

WIZ056-057-062-063-064-067-068-200300-
SOUTH CENTRAL WISCONSIN

CITY           SKY/WX    TMP DP  RH WIND       PRES   REMARKS
REEDSBURG      CLEAR     68  62  82 E6        29.87R
BARABOO/DELLS  CLEAR     69  62  78 SE9       29.88S
LONE ROCK      CLEAR     68  64  87 E7        29.85R
MINERAL POINT  CLEAR     68  64  88 SE7       29.87S
MADISON        CLEAR     68  64  87 SE12      29.90R
MIDDLETON      CLEAR     71  64  80 SE14      29.89S
WATERTOWN      CLEAR     63  63 100 E5        29.91S
MONROE         CLEAR     68  61  77 SE9       29.90R
JANESVILLE     CLEAR     68  63  83 E7        29.90R
$$

WIZ051-052-058>065-066-070>072-200300-
SOUTHEAST WISCONSIN

CITY           SKY/WX    TMP DP  RH WIND       PRES   REMARKS
MILWAUKEE      MOCLDY    66  63  90 SE6       29.94R
WAUKESHA       MOCLDY    63  61  94 E10       29.95R FOG
MILWAUKEE/TIMM CLOUDY    64  59  82 E5        29.95S HAZE
RACINE         MOCLDY    64  63  96 CALM      29.96R FOG
BURLINGTON     MOCLDY    64  64 100 E8        29.93F
KENOSHA        PTCLDY    63  61  93 E6        29.94R
FOND DU LAC    CLEAR     64  58  80 SE9       29.93R
SHEBOYGAN      CLEAR     56  56 100 E3        29.95R
WEST BEND        N/A     57  57 100 CALM      29.94F FOG
JUNEAU         CLEAR     62  60  94 E6        29.93S FOG
$$

LSZ147-162-200300-
LAKE SUPERIOR

STATION/POSITION TIME  TEMP    WIND        PRES    WAVE
                       AIR SEA DIR/SP/G            HT/PER
                 (UTC) (F)     (DEG/KT/KT) (MB)    (FT/S)
W MID LAKE BUOY  0150   60 55  120/ 14/ 16 1011.1F   2/ 4
DEVILS ISLAND    0200   64     120/ 11/ 13 1009.8F
PORT WING        0140   64     120/  5/  6 1009.1F
SAXON HARBOR     0130   61     190/  1/  3 1010.2S
$$

LMZ867-665-643>646-200300-
LAKE MICHIGAN

STATION/POSITION TIME  TEMP    WIND        PRES    WAVE
                       AIR SEA DIR/SP/G            HT/PER
                 (UTC) (F)     (DEG/KT/KT) (MB)    (FT/S)
S GREEN BAY BUOY 0200   64 67   90/ 10/ 12 1014.1
N MID LAKE BUOY  0150   65 65   70/ 10/ 12 1015.0S   1
NORTHPORT PIER   0140   65      80/ 10/ 12 1014.2F
KEWAUNEE LAKESHO 0148   61      40/  2/  3 1013.4S
SHEBOYGAN LAKESH 0200   66      90/  6/  6 1013.8R
PORT WASHINGTON  0140   66      80/  4/  5 1014.6S
ATWATER BUOY     0109   66 68   90/  4/  8 1014.1R
MILWAUKEE LAKESH 0150   66     130/  5/  5   N/A
S MID LAKE BUOY  0150   69 69   40/  6/  8 1013.5S   0
KENOSHA   LAKESH 0200   67      80/  5/  6 1013.5
$$

TC  - TEMPERATURE IN CELSIUS
VSB - VISIBILITY IN STATUTE MILES
WCI - WIND CHILL INDEX
HX  - HEAT INDEX





USA.gov is the U.S. government's official web portal to all federal, state and local government web resources and services.